TimeEDT,TemperatureF,Dew PointF,Humidity,Sea Level PressureIn,VisibilityMPH,Wind Direction,Wind SpeedMPH,Gust SpeedMPH,PrecipitationIn,Events,Conditions,WindDirDegrees,DateUTC
12:51 AM,77.0,69.1,76,30.30,10.0,Calm,Calm,-,N/A,,Partly Cloudy,0,2013-07-16 04:51:00
1:51 AM,75.0,70.0,84,30.30,10.0,West,4.6,-,N/A,,Scattered Clouds,280,2013-07-16 05:51:00
2:51 AM,75.9,70.0,82,30.30,10.0,Calm,Calm,-,N/A,,Scattered Clouds,0,2013-07-16 06:51:00
3:51 AM,75.0,69.1,82,30.29,10.0,Calm,Calm,-,N/A,,Partly Cloudy,0,2013-07-16 07:51:00
4:51 AM,72.0,69.1,91,30.29,10.0,West,5.8,-,N/A,,Clear,270,2013-07-16 08:51:00
5:51 AM,73.0,68.0,84,30.30,10.0,West,3.5,-,N/A,,Scattered Clouds,280,2013-07-16 09:51:00
6:51 AM,73.0,69.1,87,30.32,10.0,Calm,Calm,-,N/A,,Scattered Clouds,0,2013-07-16 10:51:00
7:51 AM,78.1,70.0,76,30.34,10.0,Calm,Calm,-,N/A,,Scattered Clouds,0,2013-07-16 11:51:00
8:51 AM,80.1,71.1,74,30.34,10.0,Calm,Calm,-,N/A,,Scattered Clouds,0,2013-07-16 12:51:00
9:51 AM,84.0,72.0,67,30.34,10.0,Calm,Calm,-,N/A,,Scattered Clouds,0,2013-07-16 13:51:00
10:51 AM,84.9,70.0,61,30.33,10.0,Calm,Calm,-,N/A,,Scattered Clouds,0,2013-07-16 14:51:00
11:51 AM,86.0,71.1,61,30.32,10.0,NW,5.8,-,N/A,,Mostly Cloudy,310,2013-07-16 15:51:00
12:51 PM,86.0,70.0,59,30.31,10.0,Calm,Calm,-,N/A,,Mostly Cloudy,0,2013-07-16 16:51:00
1:51 PM,90.0,71.1,54,30.30,10.0,NW,9.2,-,N/A,Thunderstorm,Thunderstorm,320,2013-07-16 17:51:00
2:30 PM,80.6,71.6,74,30.30,9.0,West,8.1,-,0.02,,Mostly Cloudy,270,2013-07-16 18:30:00
2:51 PM,82.0,72.0,71,30.30,10.0,West,8.1,-,0.02,,Mostly Cloudy,270,2013-07-16 18:51:00
3:45 PM,86.0,69.8,58,30.30,10.0,WNW,12.7,18.4,N/A,Thunderstorm,Thunderstorm,290,2013-07-16 19:45:00
3:51 PM,84.0,69.1,61,30.31,10.0,NNW,20.7,27.6,N/A,Thunderstorm,Thunderstorm,340,2013-07-16 19:51:00
4:51 PM,75.0,71.1,87,30.30,9.0,NNE,5.8,-,0.03,,Overcast,20,2013-07-16 20:51:00
5:51 PM,75.0,72.0,90,30.30,9.0,SSW,3.5,-,N/A,,Mostly Cloudy,200,2013-07-16 21:51:00
6:51 PM,75.9,72.0,87,30.29,10.0,West,3.5,-,N/A,,Mostly Cloudy,280,2013-07-16 22:51:00
7:51 PM,75.9,71.1,85,30.29,10.0,West,3.5,-,N/A,,Mostly Cloudy,270,2013-07-16 23:51:00
8:51 PM,75.9,70.0,82,30.28,10.0,Calm,Calm,-,N/A,,Mostly Cloudy,0,2013-07-17 00:51:00
9:51 PM,75.9,71.1,85,30.30,10.0,Calm,Calm,-,N/A,,Overcast,0,2013-07-17 01:51:00
10:51 PM,73.9,71.1,91,30.29,10.0,West,4.6,-,N/A,,Overcast,270,2013-07-17 02:51:00
11:51 PM,75.0,71.1,87,30.30,10.0,Calm,Calm,-,N/A,,Mostly Cloudy,0,2013-07-17 03:51:00